Weather observations for the past three days for
St. Louis Regional Airport
Imperial (Metric)
Date Time (cdt) Wind (mph) Vis. (mi.) Weather Sky Cond. Temperature (ºF) Relative Humidity Wind Chill (°F) Heat Index (°F) Pressure Precipitation (in)
Air Dwpt 6 hour altimeter (in) sea level (mb) 1 hr 3 hr 6 hr
Max. Min.
09 06:45 SW 9 7.00 Overcast OVC006 57.2 55.4 94% 29.8 0.0
09 06:35 SW 6 7.00 Overcast OVC004 56.7 55.4 96% 29.8 0.0
09 06:15 SW 7 7.00 Overcast OVC004 56.3 55 96% 29.79 0.0
09 05:55 SW 7 7.00 Overcast OVC004 56.3 54.9 95% 29.79 0.0
09 05:35 SW 8 7.00 Overcast OVC004 55.9 54.7 96% 29.78 0.0
09 05:15 SW 7 7.00 Overcast OVC004 55.8 54.7 96% 29.78 0.0
09 04:55 SW 6 5.00 Fog/Mist OVC004 55.8 54.9 97% 29.78 0.0
09 04:35 SW 6 5.00 Fog/Mist OVC004 55.6 54.7 97% 29.77 0.0
09 04:15 SW 6 5.00 Fog/Mist OVC004 55.6 54.9 97% 29.77 0.0
09 03:55 SW 6 1.50 Fog/Mist OVC004 54.5 54 98% 29.77 0.0
09 03:35 Calm 0.25 Fog OVC004 50.5 49.6 97% 29.77 0.0
09 03:15 Calm 0.25 Fog OVC002 51.3 50.4 97% 29.77 0.0
09 02:55 Calm 0.50 Fog OVC002 51.8 50.9 97% 29.77 0.0
09 02:35 Calm 0.25 Fog OVC002 52.3 51.4 97% 29.77 0.0
09 02:15 Calm 0.75 Fog/Mist VV005 53.4 52.5 97% 29.77 0.0
09 01:55 Calm 1.75 Fog/Mist VV007 54.3 53.2 96% 29.77 0.0
09 01:15 SE 5 10.00 Fair CLR 55.2 54.1 96% 29.77 0.0
09 00:55 SE 5 10.00 Fair CLR 54.3 53.2 63.5 54.3 96% 29.78 0.0 0.31
09 00:35 SE 3 7.00 Fair CLR 54.9 53.6 96% 29.78 0.0
09 00:15 SE 5 10.00 Fair CLR 55.4 54 95% 29.78 0.0
08 23:55 Calm 10.00 Partly Cloudy SCT095 56.5 55 95% 29.79 0.0 0.02
08 23:35 SE 3 10.00 Light Rain SCT075 OVC095 56.7 55.4 96% 29.79 0.0 0.02
08 23:15 SE 7 10.00 Rain SCT065 OVC095 57.2 55.4 94% 29.8 0.0 0.01
08 22:55 S 7 7.00 Rain SCT065 OVC075 57.4 55.6 94% 29.81 0.0 0.11
08 22:35 SE 3 10.00 Rain SCT065 OVC075 57.4 55.4 93% 29.81 0.0 0.07
08 22:15 Calm 7.00 Rain SCT060 BKN075 OVC080 57.6 55.4 93% 29.82 0.0 0.04
08 21:45 NW 8 5.00 Rain OVC050 57.2 55.4 94% 29.82 0.0
08 20:45 NW 9 10.00 Light Rain OVC080 57.2 55.4 94% 29.78 0.0
08 19:45 N 10 10.00 Overcast OVC080 59 53.6 82% 29.79 0.0
08 18:45 N 9 10.00 Mostly Cloudy BKN070 62.6 51.8 68% 29.78 0.0
08 17:45 N 7 10.00 Partly Cloudy SCT060 66.2 51.8 60% 29.78 0.0
08 16:45 N 9 10.00 Mostly Cloudy BKN060 68 51.8 56% 29.8 0.0
08 15:45 W 9 10.00 Partly Cloudy SCT120 69.8 51.8 53% 29.81 0.0
08 14:45 SW 12 10.00 Fair CLR 71.6 50 47% 29.81 0.0
08 13:45 SW 10 G 17 10.00 Fair CLR 71.6 50 47% 29.83 0.0
08 12:45 SW 12 G 17 10.00 Mostly Cloudy BKN100 66.2 48.2 52% 29.85 0.0
08 11:45 SW 14 10.00 Overcast BKN090 OVC110 64.4 46.4 52% 29.88 0.0
08 10:45 SW 15 G 22 10.00 Overcast SCT060 OVC090 64.4 46.4 52% 29.9 0.0
08 09:45 SW 10 10.00 Partly Cloudy SCT120 64.4 50 60% 29.91 0.0
08 08:45 SW 12 10.00 Fair CLR 59 48.2 68% 29.91 0.0
08 07:45 SW 14 10.00 Partly Cloudy SCT110 57.2 46.4 67% 29.91 0.0
08 06:45 S 8 10.00 Fair CLR 51.8 44.6 77% 29.91 0.0
08 06:35 S 6 10.00 Fair CLR 50.5 43.7 78% 29.91 0.0
08 05:55 S 7 10.00 Fair CLR 50 42.4 75% 48 29.91 0.0
08 05:35 S 8 10.00 Fair CLR 50 42.1 74% 47 29.91 0.0
08 05:15 S 10 10.00 Fair CLR 50.4 41.9 73% 29.91 0.0
08 04:55 S 9 10.00 Fair CLR 50.5 41.7 72% 29.91 0.0
08 04:35 S 9 10.00 Fair CLR 50.9 41.5 70% 29.91 0.0
08 04:15 S 10 10.00 Fair CLR 50.9 41.2 70% 29.91 0.0
08 03:55 S 10 10.00 Fair CLR 51.1 41.2 69% 29.91 0.0
08 03:35 S 9 10.00 Fair CLR 50.9 41.4 70% 29.91 0.0
08 03:15 S 8 10.00 Fair CLR 50.9 41.4 70% 29.91 0.0
08 02:55 S 7 10.00 Fair CLR 50.9 41.4 70% 29.92 0.0
08 02:35 S 8 10.00 Fair CLR 51.1 41.5 70% 29.92 0.0
08 02:15 S 8 10.00 Fair CLR 51.1 41.5 70% 29.92 0.0
08 01:55 S 9 10.00 Partly Cloudy SCT100 51.8 41.4 68% 29.93 0.0
08 01:35 S 8 10.00 Partly Cloudy SCT100 52 41.4 67% 29.94 0.0
08 01:15 S 7 10.00 Fair CLR 51.4 41.2 68% 29.94 0.0
08 00:55 S 6 10.00 Fair CLR 51.8 41 65.3 51.8 67% 29.95 0.0
08 00:35 S 7 10.00 Fair CLR 52.9 41 64% 29.95 0.0
08 00:15 S 8 10.00 Fair CLR 53.2 40.5 62% 29.95 0.0
07 23:55 S 8 10.00 Fair CLR 54 40.5 60% 29.95 0.0
07 23:35 S 7 10.00 Fair CLR 53.4 41.2 63% 29.94 0.0
07 23:15 S 7 10.00 Fair CLR 52.9 42.1 67% 29.94 0.0
07 22:55 S 7 10.00 Fair CLR 53.1 41.9 66% 29.94 0.0
07 22:35 S 7 10.00 Fair CLR 53.6 41.9 65% 29.94 0.0
07 22:15 S 7 10.00 Fair CLR 54.9 41 60% 29.94 0.0
07 21:50 Vrbl 5 10.00 Fair CLR 57.2 39.2 51% 29.94 0.0
07 20:50 Vrbl 5 10.00 Fair CLR 59 39.2 48% 29.93 0.0
07 19:50 SW 9 10.00 Fair CLR 60.8 39.2 45% 29.91 0.0
07 18:50 W 8 10.00 Fair CLR 64.4 37.4 37% 29.91 0.0
07 17:50 W 12 10.00 Fair CLR 66.2 37.4 35% 29.92 0.0
07 16:50 SW 15 G 21 10.00 Partly Cloudy SCT075 66.2 37.4 35% 29.93 0.0
07 15:50 SW 9 G 21 10.00 Partly Cloudy SCT075 SCT090 66.2 35.6 32% 29.95 0.0
07 14:50 W 12 G 20 10.00 Partly Cloudy SCT070 SCT090 66.2 37.4 35% 29.97 0.0
07 13:45 W 9 G 18 10.00 Partly Cloudy SCT050 64.4 39.2 40% 29.99 0.0
07 12:45 W 13 G 20 10.00 Fair CLR 62.6 35.6 37% 30.01 0.0
07 11:45 W 10 10.00 Fair CLR 62.6 33.8 34% 30.03 0.0
07 10:45 SW 8 10.00 Fair CLR 59 35.6 42% 30.05 0.0
07 09:45 SW 9 10.00 Fair CLR 57.2 37.4 48% 30.06 0.0
07 08:45 SW 10 10.00 Fair CLR 53.6 41 63% 30.06 0.0
07 07:45 SW 6 10.00 Fair CLR 48.2 42.8 82% 46 30.06 0.0
07 06:45 Calm 10.00 Fair CLR 41 37.4 87% 30.06 0.0
07 06:35 Calm 10.00 Fair CLR 39.6 37.6 93% 30.05 0.0
07 06:15 Calm 10.00 Fair CLR 39.9 37.8 92% 30.05 0.0
07 05:55 Calm 10.00 Fair CLR 40.5 38.3 92% 30.04 0.0
07 05:35 Calm 10.00 Fair CLR 40.6 38.3 91% 30.04 0.0
07 05:15 Calm 10.00 Fair CLR 41 38.3 90% 30.04 0.0
07 04:55 Calm 10.00 Fair CLR 41.2 38.3 90% 30.03 0.0
07 04:35 Calm 10.00 Fair CLR 40.1 38.1 93% 30.04 0.0
07 04:15 Calm 10.00 Fair CLR 38.8 37.2 94% 30.04 0.0
07 03:55 Calm 10.00 Fair CLR 38.3 36.5 93% 30.04 0.0
07 03:35 Calm 10.00 Fair CLR 40.3 37.4 90% 30.05 0.0
07 03:15 Calm 10.00 Fair CLR 40.3 37.9 91% 30.05 0.0
07 02:55 Calm 10.00 Fair CLR 41.5 38.3 88% 30.05 0.0
07 02:35 Calm 10.00 Fair CLR 41.2 38.3 90% 30.04 0.0
07 02:15 Calm 10.00 Fair CLR 42.4 38.3 85% 30.04 0.0
07 01:55 Calm 10.00 Fair CLR 42.6 38.7 86% 30.05 0.0
07 01:35 Calm 10.00 Fair CLR 43 38.8 85% 30.05 0.0
07 01:15 Calm 10.00 Fair CLR 44.1 38.1 80% 30.06 0.0
07 00:55 Calm 10.00 Fair CLR 44.1 38.3 58.5 44.1 80% 30.05 0.0
07 00:35 Calm 10.00 Fair CLR 46.4 37.4 71% 30.06 0.0
07 00:15 Calm 10.00 Fair CLR 45.7 38.8 77% 30.05 0.0
06 23:55 Calm 10.00 Fair CLR 45.7 38.7 77% 30.05 0.0
06 23:35 Calm 10.00 Fair CLR 47.5 38.3 71% 30.05 0.0
06 23:15 Calm 10.00 Fair CLR 47.7 38.5 71% 30.05 0.0
06 22:55 Calm 10.00 Fair CLR 48.2 38.7 70% 30.05 0.0
06 22:35 Calm 10.00 Fair CLR 49.1 37.8 65% 30.05 0.0
06 22:15 N 3 10.00 Fair CLR 48.7 39.4 70% 30.05 0.0
06 21:50 NW 3 10.00 Fair CLR 48.2 41 76% 30.05 0.0
06 20:50 NW 3 10.00 Fair CLR 53.6 37.4 54% 30.03 0.0
06 19:50 N 7 10.00 Fair CLR 55.4 33.8 44% 30.01 0.0
06 18:50 NW 9 10.00 A Few Clouds FEW070 59 33.8 39% 30 0.0
06 17:50 N 6 10.00 Partly Cloudy SCT070 59 35.6 42% 30 0.0
06 16:50 NW 8 10.00 Mostly Cloudy BKN070 59 35.6 42% 30 0.0
06 15:50 N 9 10.00 Partly Cloudy SCT060 60.8 37.4 42% 30.01 0.0
06 14:50 NW 15 10.00 Mostly Cloudy BKN060 59 37.4 45% 30.02 0.0
06 13:50 N 16 10.00 A Few Clouds FEW050 59 35.6 42% 30.02 0.0
06 12:50 N 12 10.00 A Few Clouds FEW050 59 39.2 48% 30.02 0.0
06 11:50 NW 8 10.00 Mostly Cloudy BKN090 55.4 46.4 72% 30.02 0.0
06 10:50 NW 7 10.00 Overcast FEW013 OVC080 51.8 46.4 82% 30.01 0.0
06 09:50 W 7 10.00 Overcast FEW010 OVC080 50 46.4 88% 48 29.99 0.0
06 08:50 W 8 10.00 Overcast FEW008 OVC075 50 46.4 88% 47 29.99 0.0
06 07:50 W 9 10.00 Overcast OVC075 48.2 46.4 94% 45 29.98 0.0
Date Time (cdt) Wind (mph) Vis. (mi.) Weather Sky Cond. Air Dwpt Max. Min. Relative Humidity Wind Chill (°F) Heat Index (°F) altimeter (in) sea level (mb) 1 hr 3 hr 6 hr
6 hour
Temperature (ºF) Pressure Precipitation (in)